FREGAT DEB, 46099

Orbit data source: Space-Track

FREGAT DEB, 46099 is space debris in LEO originally from a launch on Mon, 18 Jul 2011 UTC launched from the Tyuratam Missile And Space Complex (TTMTR). Debris objects in space refer to the collection of defunct objects orbiting the Earth. Examples of debris include non-operational satellites, rocket bodies, and fragments generated from explosions, collisions, or faulty payload assembly.

Loading next visibility...
Identifier
46099, 2011-037JJ
Orbit
LEO
Country
Flag of CISCIS
Related business
Manufacturer
Lavochkin
Mission
Spacecraft
Bus & Motor
Unknown
Mass
Unknown
Launch date (UTC)
2011-07-18 (15 years ago)
Launch vehicle
Unknown
Launch site
Tyuratam Missile And Space Complex (TTMTR)
Object type
Payload
Rocket body
Debris
Shape & HBR
Unknown shape, 0.1 m
Radar Cross Section
Medium (>0.1 m² and <1 m²)

Expand to show TLE details & history
Last TLE update: 10 months ago

TLE from 10 months ago
0 FREGAT DEB
1 46099U 11037JJ  25309.58086435 -.00018656  00000-0 -53444+0 0  9995
2 46099  50.3851  32.5831 0659683 192.4310 165.9454 10.91478031  1639
Epoch: 2025-11-05T13:56Z
TLE epoch observation values (Epoch: 2025-11-05T13:56:26.679Z)
Latitude
-0.00004°
Longitude
138.42042°
Altitude
2,758.392 km
Speed
6.391 km/s
True Right ascension
02h 10m 19s
True Declination
0° 00' 00"
Sunlit
Object was in full shadow at epoch
Visualization orbit readout
Latitude
Unknown
Longitude
Unknown
Altitude
Unknown
Speed
Unknown
Apparent Right ascension
Unknown
Apparent Declination
Unknown
Sunlit
N/A
Visualization observer readout
Local Sidereal Time
08:02:44
Azimuth
Unknown
Elevation
Unknown
Doppler factor
Unknown
Orbital elements
Apogee altitude
2,773.492 km
Perigee altitude
1,640.781 km
Semi-major axis
8,585.274 km
Eccentricity
0.06597
Inclination
50.3851°
RAAN
32.5831°
Arg. of periapsis
192.431°
True anomaly
167.6446°
Mean anomaly
165.9454°
Eccentric anomaly
166.80799°
Mean motion
2.72842 °/min
Orbital period
131.94 mins
BSTAR
-0.53444
Loading maneuver chart data...
Computing Atmospheric mass density...
Loading historical data...
Loading historical data...
Loading historical data...
Loading historical data...
Loading historical data...
Loading historical data...
Loading historical data...

Documentation

Showing up to 5 results
|